STARLINK-2213, 47780

Orbit data source: Space-Track

STARLINK-2213, 47780 is a payload satellite owned by SpaceX/Seattle (US) in LEO that was launched on Thu, 04 Mar 2021 UTC via an FALCON 9 launch vehicle from the Air Force Eastern Test Range (AFETR). Payload-class satellites include a variety of spacecraft equipped with specific instruments for various scientific and technological missions. These include communications satellites like Starlink; space stations such as the ISS; scientific satellites like the Hubble; Earth observation satellites from companies like Planet Labs, Umbra, and HawkEye 360; GPS; miniature CubeSats for education and research; and military/defense satellites.

Loading next visibility...
Identifier
47780, 2021-017BL
Orbit
LEO
Country
Flag of USUS
Related business
Manufacturer
SpaceX/Seattle
Mission
Operational Commercial Communications
Bus & Motor
STARLINK, Unknown motor
Mass
260 kg wet, ~248 kg dry
Launch date (UTC)
2021-03-04 (5 years ago)
Launch vehicle
FALCON 9
Launch site
Air Force Eastern Test Range (AFETR)
Object type
Payload
Rocket body
Debris
Shape & HBR
Box + 1 Pan, 10.1 m
Radar Cross Section
13.562 m², Large (>1 m²)

Expand to show TLE details & history
Last TLE update: 1 day ago

TLE from 1 day ago
0 STARLINK-2213
1 47780U 21017BL  26235.14135292  .00000451  00000-0  26282-4 0  9996
2 47780  53.1594 149.2472 0001323  87.8047 272.3106 15.31703311303403
Epoch: 2026-08-23T03:23Z
TLE epoch observation values (Epoch: 2026-08-23T03:23:32.892Z)
Latitude
-0°
Longitude
126.91848°
Altitude
471.594 km
Speed
7.631 km/s
True Right ascension
09h 56m 59s
True Declination
0° 00' 00"
Sunlit
Object was in daylight at epoch
Visualization orbit readout
Latitude
Unknown
Longitude
Unknown
Altitude
Unknown
Speed
Unknown
Apparent Right ascension
Unknown
Apparent Declination
Unknown
Sunlit
N/A
Visualization observer readout
Local Sidereal Time
04:18:52
Azimuth
Unknown
Elevation
Unknown
Doppler factor
Unknown
Orbital elements
Apogee altitude
471.893 km
Perigee altitude
470.081 km
Semi-major axis
6,849.124 km
Eccentricity
0.00013
Inclination
53.1594°
RAAN
149.2472°
Arg. of periapsis
87.8047°
True anomaly
272.29545°
Mean anomaly
272.3106°
Eccentric anomaly
272.30303°
Mean motion
3.82905 °/min
Orbital period
94.02 mins
BSTAR
0.000026282
Loading maneuver chart data...
Computing Atmospheric mass density...

Documentation

Showing up to 5 results
|